Precipitable_Water
1.57 1.55 1.50 1.54 1.60 1.65 1.64 1.65 1.65 1.68 1.68 1.62 1.59 1.54 1.50 1.54 1.60 1.66 1.61 1.68 1.65 1.68 1.76 1.65 1.58 1.67 1.65 1.69 1.68 1.72 1.73 1.65 1.41 1.53 1.67 1.76 1.76 1.77 1.81 1.85 1.88 1.97 1.97
1.65 1.70 1.64 1.62 1.64 1.67 1.68 1.70 1.78 1.73 1.79 1.79 1.78 1.76 1.80 1.84 1.74 1.73 1.66 1.76 1.76 1.77 1.84 1.81 1.79 1.85 1.76 1.85 1.87 1.74 1.71 1.77 1.66 1.56 1.74 1.79 1.73 1.83 1.84 1.80 1.87 2.02 2.05
1.68 1.70 1.73 1.74 1.72 1.74 1.83 1.87 1.85 1.80 1.80 1.85 1.86 1.88 1.92 1.99 1.95 1.95 1.88 1.86 1.99 1.92 1.87 1.86 1.94 1.93 1.77 1.84 1.84 1.82 1.84 1.92 1.88 1.75 1.66 1.76 1.76 1.82 1.82 1.94 1.97 2.02 2.10
1.73 1.71 1.72 1.78 1.83 1.90 1.98 2.03 2.09 2.07 2.01 2.03 2.08 2.18 2.27 2.27 2.28 2.05 1.99 1.83 1.88 1.80 1.82 1.89 1.94 1.85 1.68 1.73 1.80 1.91 1.95 1.88 1.87 1.79 1.78 1.77 1.74 1.77 1.79 1.67 1.72 2.05 2.04
1.78 1.79 1.80 1.89 1.95 2.02 2.05 2.10 2.17 2.16 2.17 2.22 2.27 2.29 2.26 2.13 2.11 2.09 1.79 1.52 1.48 1.50 1.61 1.71 1.89 1.94 1.81 1.79 1.80 1.72 1.65 1.69 1.74 1.72 1.62 1.57 1.56 1.59 1.61 1.68 1.72 1.89 2.04
1.74 1.73 1.85 1.91 2.02 2.07 2.17 2.12 2.16 2.18 2.12 2.12 2.05 2.01 2.02 2.00 1.85 1.75 1.71 1.67 1.64 1.67 1.73 1.82 1.89 1.91 1.86 1.85 1.82 1.78 1.77 1.71 1.69 1.63 1.56 1.56 1.51 1.59 1.64 1.67 1.73 1.73 1.69
1.81 1.91 1.90 1.96 2.01 2.07 2.09 2.04 2.03 1.99 1.96 1.89 1.79 1.60 1.41 1.43 1.51 1.56 1.62 1.60 1.60 1.73 1.83 1.80 1.76 1.75 1.71 1.62 1.66 1.68 1.71 1.85 1.88 1.74 1.55 1.54 1.46 1.56 1.64 1.63 1.74 1.64 1.73
1.52 1.60 1.70 1.76 1.79 1.82 1.75 1.70 1.62 1.53 1.35 1.21 1.23 1.32 1.40 1.50 1.56 1.62 1.66 1.67 1.71 1.75 1.74 1.71 1.64 1.59 1.57 1.57 1.61 1.61 1.64 1.70 1.68 1.65 1.58 1.58 1.69 1.74 1.75 1.74 1.67 1.71 1.87
1.27 1.37 1.45 1.48 1.43 1.40 1.23 1.14 1.12 1.13 1.21 1.25 1.32 1.34 1.36 1.38 1.44 1.49 1.53 1.56 1.55 1.59 1.68 1.72 1.71 1.67 1.65 1.68 1.57 1.49 1.47 1.51 1.66 1.66 1.67 1.73 1.76 1.75 1.75 1.67 1.54 1.52 1.49
1.02 1.06 1.11 1.09 1.04 1.06 1.16 1.23 1.29 1.29 1.22 1.25 1.22 1.28 1.27 1.23 1.36 1.37 1.40 1.45 1.40 1.42 1.52 1.59 1.57 1.56 1.60 1.59 1.53 1.49 1.39 1.44 1.54 1.59 1.61 1.66 1.73 1.73 1.75 1.69 1.60 1.47 1.49
1.14 1.16 1.25 1.19 1.19 1.26 1.26 1.26 1.22 1.18 1.16 1.17 1.20 1.24 1.25 1.31 1.27 1.36 1.45 1.47 1.43 1.47 1.55 1.55 1.61 1.59 1.54 1.56 1.56 1.53 1.51 1.59 1.57 1.58 1.58 1.59 1.62 1.67 1.70 1.74 1.79 1.71 1.78
1.16 1.17 1.17 1.21 1.25 1.23 1.20 1.21 1.20 1.21 1.17 1.20 1.22 1.18 1.16 1.20 1.20 1.27 1.31 1.37 1.40 1.33 1.38 1.49 1.54 1.54 1.54 1.55 1.54 1.52 1.52 1.51 1.48 1.48 1.49 1.52 1.58 1.61 1.70 1.72 1.75 1.83 1.95
1.13 1.12 1.13 1.14 1.17 1.27 1.22 1.20 1.14 1.19 1.15 1.21 1.19 1.06 1.01 1.06 1.13 1.19 1.20 1.24 1.33 1.33 1.37 1.39 1.43 1.43 1.44 1.45 1.42 1.42 1.44 1.44 1.39 1.34 1.36 1.40 1.50 1.60 1.67 1.68 1.72 1.78 1.78
1.04 1.06 1.12 1.08 1.13 1.26 1.26 1.23 1.21 1.21 1.16 1.18 1.14 1.01 0.99 0.99 1.01 1.09 1.10 1.08 1.15 1.17 1.21 1.26 1.29 1.27 1.25 1.26 1.25 1.24 1.27 1.33 1.35 1.36 1.38 1.41 1.51 1.52 1.52 1.57 1.52 1.52 1.52
1.10 1.14 1.19 1.22 1.21 1.23 1.26 1.27 1.30 1.30 1.26 1.20 1.15 1.05 0.93 0.88 0.97 1.16 1.18 1.12 1.12 1.14 1.11 1.12 1.09 1.11 1.08 1.10 1.12 1.14 1.17 1.20 1.20 1.25 1.27 1.33 1.39 1.43 1.47 1.55 1.52 1.50 1.39
1.09 1.19 1.25 1.28 1.23 1.27 1.23 1.23 1.35 1.34 1.33 1.27 1.24 1.12 1.03 1.03 1.04 1.16 1.24 1.23 1.21 1.19 1.11 1.03 1.00 1.01 1.00 1.04 1.06 1.09 1.13 1.16 1.20 1.26 1.31 1.33 1.35 1.38 1.33 1.44 1.46 1.41 1.32
1.14 1.26 1.27 1.19 1.14 1.21 1.28 1.14 1.08 1.24 1.30 1.22 1.23 1.15 1.08 1.06 1.05 1.12 1.22 1.27 1.27 1.26 1.15 1.16 1.12 1.12 1.12 1.12 1.13 1.12 1.10 1.17 1.26 1.27 1.30 1.33 1.33 1.32 1.30 1.33 1.35 1.38 1.37
1.17 1.25 1.28 1.24 1.17 1.17 1.17 1.18 1.25 1.08 1.07 1.08 1.22 1.15 1.10 1.11 1.11 1.11 1.21 1.28 1.29 1.34 1.36 1.28 1.19 1.19 1.16 1.10 1.09 1.10 1.16 1.20 1.22 1.26 1.31 1.32 1.32 1.25 1.23 1.24 1.27 1.24 1.23
1.19 1.19 1.20 1.21 1.19 1.20 1.25 1.21 1.19 1.20 1.05 1.07 1.19 1.27 1.27 1.24 1.22 1.15 1.19 1.19 1.28 1.39 1.43 1.51 1.42 1.31 1.26 1.18 1.09 1.12 1.17 1.22 1.24 1.24 1.29 1.31 1.30 1.33 1.22 1.21 1.19 1.11 1.12
1.10 1.06 1.08 1.19 1.18 1.19 1.21 1.17 1.18 1.11 1.05 1.08 1.15 1.23 1.28 1.24 1.19 1.14 1.14 1.20 1.24 1.40 1.43 1.45 1.43 1.39 1.27 1.20 1.12 1.12 1.14 1.18 1.19 1.22 1.25 1.31 1.36 1.27 1.22 1.17 1.11 1.12 1.11
1.03 1.13 1.12 1.09 1.08 1.09 1.14 1.13 1.15 1.08 1.10 1.11 1.17 1.30 1.36 1.32 1.25 1.18 1.17 1.21 1.28 1.33 1.37 1.37 1.40 1.37 1.24 1.20 1.16 1.17 1.15 1.14 1.16 1.21 1.26 1.27 1.27 1.23 1.25 1.21 1.16 1.17 1.20
1.06 1.16 1.12 1.07 1.08 1.12 1.16 1.18 1.15 1.06 1.06 1.10 1.18 1.27 1.33 1.36 1.27 1.20 1.24 1.21 1.19 1.26 1.35 1.35 1.28 1.26 1.22 1.17 1.14 1.19 1.17 1.13 1.15 1.17 1.20 1.23 1.23 1.24 1.22 1.22 1.19 1.26 1.17
1.04 1.07 1.09 1.05 1.14 1.12 1.11 1.18 1.11 1.12 1.14 1.16 1.20 1.19 1.25 1.33 1.28 1.25 1.25 1.23 1.22 1.23 1.27 1.24 1.20 1.22 1.25 1.19 1.20 1.24 1.22 1.19 1.21 1.22 1.19 1.21 1.22 1.21 1.21 1.20 1.29 1.15 1.09
0.91 0.92 0.97 1.00 1.05 1.09 1.11 1.08 1.03 1.06 1.09 1.15 1.13 1.16 1.18 1.22 1.20 1.22 1.26 1.26 1.29 1.27 1.32 1.28 1.21 1.19 1.19 1.15 1.21 1.23 1.30 1.33 1.33 1.28 1.27 1.25 1.21 1.22 1.20 1.22 1.14 1.05 1.05
0.99 0.83 0.82 0.91 0.89 0.89 1.02 1.04 1.08 1.07 1.07 1.10 1.13 1.13 1.14 1.17 1.14 1.20 1.27 1.29 1.27 1.24 1.22 1.21 1.24 1.15 1.18 1.17 1.19 1.21 1.30 1.31 1.29 1.30 1.29 1.30 1.25 1.23 1.18 1.14 1.10 1.10 1.07
0.94 0.83 0.79 0.82 0.90 0.92 0.97 1.05 1.07 1.07 1.05 1.07 1.08 1.10 1.10 1.13 1.16 1.22 1.29 1.31 1.28 1.24 1.21 1.17 1.28 1.16 1.16 1.21 1.22 1.19 1.22 1.23 1.23 1.24 1.22 1.21 1.17 1.16 1.18 1.13 1.04 1.02 0.95
Wind_Speed
14 13 12 12 11 11 11 11 11 12 12 12 13 14 15 15 16 17 18 19 19 19 19 19 20 20 21 22 22 23 24 23 23 22 22 22 22 22 22 22 22 21 21
15 14 14 13 13 13 13 14 14 15 15 16 16 16 17 16 17 17 19 20 21 21 21 21 22 21 23 23 24 25 26 26 25 25 25 25 25 25 26 26 26 26 24
17 16 16 15 15 15 16 16 17 18 19 20 21 21 20 19 18 18 20 23 26 25 23 22 22 22 24 25 25 27 27 26 26 25 26 26 26 28 29 29 29 29 28
18 19 18 18 17 17 17 18 18 19 21 23 24 23 21 19 23 24 29 28 28 26 23 22 22 22 24 25 25 25 23 24 25 25 25 27 31 35 38 36 33 36 32
17 19 20 20 19 19 19 19 19 20 22 23 23 22 23 23 23 25 21 20 14 17 20 23 23 24 25 26 25 25 25 26 25 27 29 30 28 24 21 20 23 24 32
14 15 18 19 18 18 19 19 19 19 19 19 19 20 20 21 22 24 21 19 17 20 23 24 25 27 27 26 26 26 26 25 26 27 28 28 28 27 25 25 23 21 23
8 10 11 12 12 13 15 15 15 15 16 17 18 18 18 19 19 19 18 17 18 20 21 22 23 24 24 25 24 24 24 25 26 27 27 27 27 26 25 24 24 24 23
8 8 9 9 10 10 11 12 13 13 14 14 14 15 16 17 17 16 17 16 17 17 17 17 18 20 20 20 20 19 20 22 23 25 26 27 25 23 22 22 22 21 19
4 5 6 7 7 7 7 8 8 9 9 11 12 13 14 16 17 18 17 17 16 16 16 18 18 17 17 17 18 19 20 21 22 23 23 24 24 24 23 22 21 20 18
1 1 1 2 2 2 3 4 5 7 9 9 11 13 15 17 18 17 16 14 13 13 13 13 13 14 14 14 14 16 17 19 20 20 20 21 21 21 21 22 23 23 22
4 4 4 3 3 3 3 4 5 7 8 9 11 14 14 15 15 14 15 14 12 11 9 9 9 11 11 12 13 14 15 16 16 17 17 16 16 16 16 18 19 23 25
5 5 4 4 4 4 4 5 6 7 9 10 12 13 13 14 14 15 16 15 15 14 12 10 10 10 9 10 11 12 13 14 14 14 13 13 13 12 12 12 13 14 16
4 4 3 3 3 3 4 5 7 8 8 10 11 11 12 13 14 15 16 16 15 15 14 13 12 12 12 12 13 14 14 13 13 11 10 10 10 9 8 7 6 5 4
2 2 2 2 2 3 4 5 6 8 8 9 10 10 9 11 12 14 15 15 15 15 13 13 13 13 13 13 14 14 14 13 12 10 9 8 7 5 4 4 4 3 3
2 2 0 1 2 3 4 5 7 8 9 9 9 8 8 9 11 13 14 14 15 15 14 14 14 14 14 14 15 15 15 14 12 10 9 7 6 6 5 3 3 1 1
3 2 1 2 3 3 4 6 6 8 9 8 8 8 7 8 10 13 14 14 14 14 14 14 15 15 15 15 15 15 15 14 12 11 9 7 5 5 4 3 1 0 1
4 3 2 2 2 4 4 4 6 7 9 7 8 7 7 8 10 12 13 14 14 14 14 15 15 16 16 16 16 16 15 14 13 11 8 7 5 5 3 1 1 1 2
4 4 3 3 4 4 3 4 6 7 9 8 7 8 8 9 11 12 13 14 13 13 13 14 16 16 17 17 17 17 15 14 13 11 8 6 5 4 3 1 1 2 2
5 5 5 5 4 3 4 6 6 7 9 7 8 8 9 10 12 12 12 13 13 13 14 14 15 17 17 18 18 18 16 15 14 11 8 6 4 4 3 2 1 2 1
6 5 5 5 5 5 5 5 6 7 8 8 8 9 9 11 12 13 13 12 13 14 14 14 15 16 17 18 18 18 17 16 13 10 7 4 3 3 2 1 2 2 2
7 6 5 5 6 5 5 6 6 7 8 9 9 9 10 10 12 13 12 14 15 14 13 14 14 15 16 17 18 17 16 15 12 9 6 5 3 2 2 2 2 2 2
8 7 6 5 5 5 6 6 7 8 8 9 10 11 10 10 10 12 14 15 14 13 13 13 14 14 15 16 17 16 14 13 11 9 7 5 4 3 3 2 2 2 2
8 8 7 7 6 7 7 7 8 8 9 9 10 11 11 10 11 12 13 14 13 13 13 13 13 13 14 15 15 14 13 12 10 9 7 5 4 4 3 3 2 2 2
7 8 9 8 7 6 7 8 10 10 10 10 11 11 11 10 11 12 12 12 12 13 13 14 13 13 12 13 13 13 13 11 10 8 7 6 5 4 4 4 3 3 3
8 9 9 10 10 10 10 9 10 10 10 10 10 11 11 12 12 11 12 12 12 13 13 13 13 12 11 11 12 12 12 11 9 8 8 6 5 5 5 4 3 4 3
9 10 10 11 11 11 11 11 12 12 12 12 12 12 13 13 13 13 12 12 13 13 13 12 11 11 10 9 10 11 10 9 8 9 8 7 6 6 5 4 4 4 2
Wind_Direction
233 237 241 245 251 253 257 263 265 270 273 272 274 275 272 272 269 267 266 265 265 266 264 262 264 267 269 270 270 269 267 266 269 275 276 278 276 276 274 272 271 269 267
236 240 244 249 254 258 261 265 270 271 273 274 276 276 276 276 276 275 272 271 268 267 266 267 269 271 273 274 274 273 271 268 268 272 274 275 276 276 274 272 271 266 266
241 242 246 250 255 261 266 269 272 273 273 275 275 276 275 273 274 282 283 279 269 264 265 268 270 276 278 275 277 277 272 271 270 273 274 277 278 277 275 273 270 265 263
244 244 247 251 258 264 268 273 276 277 277 278 278 275 272 272 283 287 286 288 280 254 261 269 272 278 282 280 282 277 272 272 271 272 276 278 283 283 274 270 274 261 258
248 248 249 253 260 265 271 275 278 280 284 286 287 289 289 298 299 307 301 297 280 265 267 271 276 284 285 282 280 277 275 275 270 273 273 282 285 287 290 267 278 265 255
251 252 251 253 258 265 273 280 283 285 294 299 304 304 301 302 301 302 299 293 278 275 279 275 275 281 282 281 279 278 276 275 273 276 279 280 280 279 273 273 272 271 269
252 253 256 254 256 267 278 286 289 297 302 306 308 310 310 309 310 306 300 295 287 282 279 279 279 281 282 283 281 279 278 277 277 280 280 280 283 279 273 268 269 270 271
251 255 258 263 268 272 278 287 293 299 305 310 315 318 321 321 318 317 313 306 298 291 284 284 286 287 287 286 283 283 282 283 284 285 282 281 280 278 274 268 268 271 269
249 255 259 263 269 275 286 294 302 311 318 325 328 332 333 332 331 326 320 311 302 296 291 288 288 292 293 291 289 290 290 291 291 290 288 285 279 274 272 267 264 263 259
166 195 245 273 284 295 307 320 329 332 331 334 341 341 341 339 338 339 338 331 320 309 301 298 299 298 299 298 297 297 298 297 299 296 294 290 283 276 270 267 264 259 254
95 95 85 72 75 70 47 18 3 354 351 349 348 348 350 355 3 5 6 6 0 352 344 333 326 321 316 311 308 306 305 305 306 305 304 299 293 283 279 274 267 263 255
100 90 78 83 76 64 42 25 15 12 10 7 4 5 10 13 19 21 21 19 19 20 17 10 3 358 352 343 334 326 321 317 315 315 313 312 307 297 290 283 276 272 264
106 94 83 81 62 40 25 18 15 9 8 6 7 10 16 19 22 22 23 21 21 21 22 22 19 14 6 355 351 347 340 332 325 322 323 323 320 313 302 295 294 275 271
143 108 77 66 36 19 12 9 7 3 4 3 6 10 15 19 22 20 18 21 20 20 19 18 14 9 6 2 357 354 353 350 349 345 334 326 329 336 331 309 303 297 295
191 193 159 356 339 342 357 357 355 358 357 359 2 9 15 18 16 13 13 15 15 14 13 11 8 6 3 0 359 357 355 353 350 347 345 344 344 334 326 318 319 316 312
205 208 268 298 311 317 329 341 351 356 360 1 3 6 8 9 7 7 6 5 4 5 7 7 5 2 360 357 355 354 353 354 352 349 347 344 343 345 337 311 281 17 10
210 221 285 315 325 335 339 346 349 353 358 359 360 360 356 355 356 357 358 358 358 358 2 2 1 0 357 354 350 348 347 347 345 344 341 341 341 347 345 339 249 258 292
218 234 260 296 300 324 332 341 341 345 348 349 346 352 347 343 343 345 346 350 355 356 354 355 356 356 356 353 351 348 346 344 341 337 332 326 325 330 327 307 291 300 304
236 254 263 279 289 309 310 322 327 338 341 342 342 338 339 344 344 340 338 341 346 343 345 342 347 350 352 353 353 352 348 345 341 334 326 319 312 312 322 263 276 292 295
244 255 261 263 274 287 303 325 328 336 346 341 336 336 336 339 344 341 337 334 336 338 341 340 344 347 349 352 354 354 354 352 351 348 342 332 318 320 319 267 273 273 265
239 250 270 264 267 275 295 315 318 327 332 338 335 333 334 333 339 342 343 340 336 333 336 339 342 344 347 350 352 353 356 359 3 8 14 15 11 355 344 307 285 246 274
238 246 255 263 276 269 280 301 314 321 319 323 333 337 331 330 335 340 341 343 344 342 340 340 340 342 345 349 352 354 359 4 9 13 16 18 16 7 3 0 346 277 244
236 240 247 263 276 278 273 288 307 314 316 319 325 328 331 326 328 332 335 341 345 349 347 343 342 342 347 351 355 358 360 2 7 11 14 21 22 20 17 1 333 322 261
244 245 249 256 268 280 279 291 303 304 309 309 318 323 324 323 325 328 332 335 340 342 346 346 345 344 348 352 356 0 2 2 1 5 8 6 0 357 351 344 331 324 297
255 252 252 255 263 276 277 287 299 303 310 311 314 319 320 320 321 326 327 331 333 336 340 343 346 346 348 350 354 357 359 2 6 6 3 357 351 344 339 334 326 325 314
263 256 258 261 267 272 271 281 291 297 300 305 308 311 313 312 312 312 316 320 325 328 333 337 338 343 345 348 353 356 359 4 9 7 9 6 1 356 349 341 320 314 281